CMM906 SLVR-SKBQ

Flight info

Callsign CMM906
Flight time 4h 11m
Altitude 34000
Route PAKES A301 TRI/N0465F360 UN420 RCO UL417 BUTAN/N0458F380 UL417 LONAX UM782 EJA/N0397F240 A301 ISOTO ISOTO5A
Aircraft B38M/M-SDE1FGHILORVWXY/HB1

Departure

Time 2026-05-03 21:11
Airport Viru Viru International Airport (SLVR)

Arrival

Time 2026-05-04 01:23
Airport Ernesto Cortissoz International Airport (SKBQ)
Time Latitude Longitude Altitude Speed Heading
2026-05-03 20:15 -17.64711 -63.13999 1233 ft 0 kts 237°
2026-05-03 21:02 -17.64710 -63.13999 1233 ft 2 kts 237°
2026-05-03 21:02 -17.64699 -63.13976 1233 ft 4 kts 253°
2026-05-03 21:02 -17.64695 -63.13949 1233 ft 4 kts 273°
2026-05-03 21:03 -17.64701 -63.13922 1233 ft 4 kts 298°
2026-05-03 21:03 -17.64715 -63.13904 1233 ft 1 kts 327°
2026-05-03 21:06 -17.64708 -63.13909 1233 ft 3 kts 326°
2026-05-03 21:06 -17.64674 -63.13933 1216 ft 8 kts 325°
2026-05-03 21:06 -17.64613 -63.13973 1233 ft 13 kts 329°
2026-05-03 21:07 -17.64520 -63.14025 1233 ft 17 kts 354°
2026-05-03 21:07 -17.64464 -63.13968 1233 ft 11 kts 60°
2026-05-03 21:07 -17.64426 -63.13902 1233 ft 11 kts 56°
2026-05-03 21:07 -17.64366 -63.13852 1233 ft 13 kts 355°
2026-05-03 21:08 -17.64272 -63.13908 1233 ft 18 kts 327°
2026-05-03 21:08 -17.64152 -63.13990 1233 ft 23 kts 328°
2026-05-03 21:08 -17.64014 -63.14078 1233 ft 24 kts 340°
2026-05-03 21:08 -17.63894 -63.13982 1231 ft 24 kts 38°
2026-05-03 21:09 -17.63774 -63.14006 1231 ft 18 kts 326°
2026-05-03 21:09 -17.63665 -63.14081 1232 ft 19 kts 327°
2026-05-03 21:09 -17.63542 -63.14163 1232 ft 23 kts 327°
2026-05-03 21:09 -17.63398 -63.14260 1233 ft 27 kts 327°
2026-05-03 21:10 -17.63237 -63.14373 1232 ft 21 kts 312°
2026-05-03 21:10 -17.63187 -63.14442 1231 ft 6 kts 10°
2026-05-03 21:10 -17.63177 -63.14414 1231 ft 5 kts 117°
2026-05-03 21:10 -17.63211 -63.14387 1231 ft 11 kts 146°
2026-05-03 21:11 -17.63444 -63.14229 1233 ft 75 kts 147°
2026-05-03 21:11 -17.64067 -63.13809 1230 ft 136 kts 147°
2026-05-03 21:11 -17.65003 -63.13181 1290 ft 178 kts 149°
2026-05-03 21:11 -17.66046 -63.12460 1915 ft 183 kts 143°
2026-05-03 21:12 -17.67148 -63.11676 2396 ft 202 kts 144°
2026-05-03 21:12 -17.68420 -63.10821 2793 ft 233 kts 152°
2026-05-03 21:12 -17.70072 -63.10543 3255 ft 261 kts 190°
2026-05-03 21:12 -17.71715 -63.11429 3867 ft 278 kts 227°
2026-05-03 21:13 -17.72714 -63.13209 4508 ft 294 kts 253°
2026-05-03 21:13 -17.72889 -63.15379 5104 ft 308 kts 282°
2026-05-03 21:13 -17.71952 -63.17359 6103 ft 305 kts 313°
2026-05-03 21:13 -17.70238 -63.18676 6942 ft 310 kts 332°
2026-05-03 21:14 -17.68336 -63.19777 7808 ft 313 kts 329°
2026-05-03 21:14 -17.66434 -63.20918 8698 ft 316 kts 329°
2026-05-03 21:14 -17.64516 -63.22072 9542 ft 319 kts 329°
2026-05-03 21:14 -17.62577 -63.23238 10312 ft 323 kts 329°
2026-05-03 21:15 -17.60609 -63.24418 10971 ft 328 kts 329°
2026-05-03 21:15 -17.58608 -63.25621 11617 ft 334 kts 329°
2026-05-03 21:15 -17.56607 -63.26826 12268 ft 339 kts 329°
2026-05-03 21:15 -17.54513 -63.28081 12879 ft 345 kts 329°
2026-05-03 21:16 -17.52444 -63.29325 13448 ft 351 kts 329°
2026-05-03 21:16 -17.50312 -63.30609 14034 ft 354 kts 329°
2026-05-03 21:16 -17.48172 -63.31896 14672 ft 356 kts 329°
2026-05-03 21:16 -17.46004 -63.33198 15161 ft 361 kts 329°
2026-05-03 21:17 -17.43813 -63.34515 15679 ft 365 kts 329°
2026-05-03 21:17 -17.42342 -63.35398 16032 ft 368 kts 329°
2026-05-03 21:17 -17.39352 -63.37198 16711 ft 374 kts 329°
2026-05-03 21:17 -17.37086 -63.38554 17255 ft 376 kts 330°
2026-05-03 21:18 -17.34796 -63.39932 17721 ft 380 kts 330°
2026-05-03 21:18 -17.32496 -63.41312 18256 ft 383 kts 330°
2026-05-03 21:18 -17.30199 -63.42691 18676 ft 386 kts 330°
2026-05-03 21:18 -17.27831 -63.44110 19089 ft 389 kts 330°
2026-05-03 21:19 -17.25505 -63.45506 19541 ft 391 kts 330°
2026-05-03 21:19 -17.23140 -63.46922 19981 ft 393 kts 329°
2026-05-03 21:19 -17.20783 -63.48394 20363 ft 397 kts 329°
2026-05-03 21:19 -17.18409 -63.49883 20792 ft 399 kts 329°
2026-05-03 21:20 -17.16025 -63.51375 21236 ft 401 kts 329°
2026-05-03 21:20 -17.13616 -63.52879 21635 ft 404 kts 329°
2026-05-03 21:20 -17.11199 -63.54388 22068 ft 405 kts 329°
2026-05-03 21:20 -17.08770 -63.55904 22494 ft 407 kts 329°
2026-05-03 21:21 -17.06330 -63.57426 22885 ft 410 kts 329°
2026-05-03 21:21 -17.03865 -63.58963 23255 ft 414 kts 329°
2026-05-03 21:21 -17.01387 -63.60508 23674 ft 414 kts 329°
2026-05-03 21:21 -16.98936 -63.62037 23985 ft 417 kts 328°
2026-05-03 21:22 -16.96439 -63.63593 24328 ft 419 kts 328°
2026-05-03 21:22 -16.93936 -63.65151 24692 ft 419 kts 328°
2026-05-03 21:22 -16.91429 -63.66712 25069 ft 420 kts 328°
2026-05-03 21:22 -16.88914 -63.68278 25427 ft 421 kts 328°
2026-05-03 21:23 -16.86396 -63.69844 25768 ft 422 kts 328°
2026-05-03 21:23 -16.83869 -63.71417 26100 ft 423 kts 328°
2026-05-03 21:23 -16.81323 -63.73000 26442 ft 425 kts 328°
2026-05-03 21:23 -16.78777 -63.74582 26776 ft 426 kts 328°
2026-05-03 21:24 -16.76229 -63.76166 27107 ft 427 kts 328°
2026-05-03 21:24 -16.73672 -63.77755 27439 ft 428 kts 328°
2026-05-03 21:24 -16.71106 -63.79349 27742 ft 430 kts 328°
2026-05-03 21:24 -16.68527 -63.80950 28050 ft 432 kts 328°
2026-05-03 21:25 -16.65974 -63.82534 28351 ft 433 kts 328°
2026-05-03 21:25 -16.63378 -63.84145 28602 ft 436 kts 328°
2026-05-03 21:25 -16.60766 -63.85765 28860 ft 438 kts 328°
2026-05-03 21:25 -16.58147 -63.87389 29167 ft 439 kts 328°
2026-05-03 21:26 -16.55517 -63.89020 29448 ft 440 kts 328°
2026-05-03 21:26 -16.52875 -63.90657 29721 ft 442 kts 328°
2026-05-03 21:26 -16.50232 -63.92295 29990 ft 443 kts 328°
2026-05-03 21:26 -16.47580 -63.93937 30221 ft 445 kts 327°
2026-05-03 21:27 -16.44893 -63.95601 30442 ft 446 kts 327°
2026-05-03 21:27 -16.42254 -63.97234 30663 ft 447 kts 327°
2026-05-03 21:27 -16.39563 -63.98899 30883 ft 449 kts 327°
2026-05-03 21:27 -16.36881 -64.00558 31099 ft 450 kts 327°
2026-05-03 21:28 -16.34163 -64.02238 31307 ft 451 kts 327°
2026-05-03 21:28 -16.31491 -64.03889 31500 ft 453 kts 327°
2026-05-03 21:28 -16.28752 -64.05582 31706 ft 454 kts 327°
2026-05-03 21:28 -16.26040 -64.07257 31922 ft 455 kts 327°
2026-05-03 21:29 -16.23333 -64.08929 32134 ft 457 kts 327°
2026-05-03 21:29 -16.20594 -64.10620 32380 ft 457 kts 327°
2026-05-03 21:29 -16.17860 -64.12307 32674 ft 456 kts 327°
2026-05-03 21:29 -16.15135 -64.13988 32978 ft 454 kts 327°
2026-05-03 21:30 -16.12410 -64.15669 33281 ft 453 kts 327°
2026-05-03 21:30 -16.09712 -64.17332 33585 ft 452 kts 327°
2026-05-03 21:30 -16.07011 -64.18997 33881 ft 451 kts 327°
2026-05-03 21:30 -16.04306 -64.20662 33970 ft 451 kts 327°
2026-05-03 21:31 -15.99825 -64.23423 33958 ft 448 kts 327°
2026-05-03 21:31 -15.94471 -64.26718 33953 ft 449 kts 327°
2026-05-03 21:32 -15.89082 -64.30033 33955 ft 449 kts 327°
2026-05-03 21:32 -15.83702 -64.33340 33955 ft 449 kts 327°
2026-05-03 21:33 -15.78315 -64.36649 33950 ft 449 kts 328°
2026-05-03 21:33 -15.72942 -64.39948 33952 ft 449 kts 328°
2026-05-03 21:34 -15.67587 -64.43234 33943 ft 449 kts 328°
2026-05-03 21:34 -15.62219 -64.46526 33944 ft 449 kts 328°
2026-05-03 21:35 -15.56837 -64.49824 33941 ft 449 kts 328°
2026-05-03 21:35 -15.51454 -64.53120 33941 ft 449 kts 328°
2026-05-03 21:36 -15.46078 -64.56410 33933 ft 449 kts 328°
2026-05-03 21:36 -15.40701 -64.59700 33935 ft 449 kts 328°
2026-05-03 21:37 -15.35319 -64.62989 33933 ft 449 kts 328°
2026-05-03 21:37 -15.29968 -64.66259 33935 ft 449 kts 328°
2026-05-03 21:38 -15.24583 -64.69546 33931 ft 449 kts 328°
2026-05-03 21:38 -15.19200 -64.72831 33927 ft 449 kts 328°
2026-05-03 21:39 -15.13828 -64.76107 33930 ft 449 kts 329°
2026-05-03 21:39 -15.08465 -64.79375 33928 ft 449 kts 329°
2026-05-03 21:40 -15.03074 -64.82659 33930 ft 449 kts 329°
2026-05-03 21:40 -14.97681 -64.85942 33934 ft 449 kts 329°
2026-05-03 21:41 -14.92279 -64.89228 33938 ft 449 kts 329°
2026-05-03 21:41 -14.86927 -64.92482 33938 ft 449 kts 329°
2026-05-03 21:42 -14.81513 -64.95772 33939 ft 449 kts 329°
2026-05-03 21:42 -14.76136 -64.99037 33916 ft 449 kts 329°
2026-05-03 21:43 -14.70770 -65.02294 33915 ft 449 kts 329°
2026-05-03 21:43 -14.65393 -65.05556 33917 ft 449 kts 329°
2026-05-03 21:44 -14.60001 -65.08825 33912 ft 449 kts 329°
2026-05-03 21:44 -14.54624 -65.12082 33912 ft 449 kts 329°
2026-05-03 21:45 -14.49236 -65.15346 33911 ft 450 kts 329°
2026-05-03 21:45 -14.43811 -65.18629 33911 ft 450 kts 329°
2026-05-03 21:46 -14.38439 -65.21878 33912 ft 450 kts 329°
2026-05-03 21:46 -14.33017 -65.25156 33912 ft 450 kts 329°
2026-05-03 21:47 -14.27651 -65.28398 33911 ft 450 kts 329°
2026-05-03 21:47 -14.22219 -65.31678 33911 ft 451 kts 330°
2026-05-03 21:48 -14.16796 -65.34951 33911 ft 451 kts 330°
2026-05-03 21:48 -14.11394 -65.38210 33909 ft 451 kts 330°
2026-05-03 21:49 -14.05992 -65.41466 33919 ft 451 kts 330°
2026-05-03 21:49 -14.00588 -65.44722 33932 ft 451 kts 330°
2026-05-03 21:50 -13.95177 -65.47980 33942 ft 451 kts 330°
2026-05-03 21:50 -13.89778 -65.51229 33952 ft 451 kts 330°
2026-05-03 21:51 -13.84356 -65.54490 33956 ft 451 kts 330°
2026-05-03 21:51 -13.78951 -65.57740 33955 ft 451 kts 330°
2026-05-03 21:52 -13.73526 -65.61000 33947 ft 450 kts 330°
2026-05-03 21:52 -13.68129 -65.64240 33907 ft 451 kts 330°
2026-05-03 21:53 -13.62720 -65.67487 33904 ft 451 kts 330°
2026-05-03 21:53 -13.57295 -65.70741 33906 ft 452 kts 330°
2026-05-03 21:54 -13.51862 -65.73999 33903 ft 451 kts 330°
2026-05-03 21:54 -13.46435 -65.77251 33906 ft 451 kts 330°
2026-05-03 21:55 -13.41003 -65.80504 33905 ft 451 kts 330°
2026-05-03 21:55 -13.35614 -65.83730 33903 ft 451 kts 330°
2026-05-03 21:56 -13.30181 -65.86981 33906 ft 453 kts 330°
2026-05-03 21:56 -13.24719 -65.90247 33906 ft 453 kts 330°
2026-05-03 21:57 -13.19271 -65.93503 33909 ft 453 kts 330°
2026-05-03 21:57 -13.13816 -65.96762 33904 ft 454 kts 330°
2026-05-03 21:58 -13.08387 -66.00003 33906 ft 454 kts 330°
2026-05-03 21:58 -13.02926 -66.03262 33900 ft 454 kts 330°
2026-05-03 21:59 -12.97469 -66.06517 33903 ft 454 kts 330°
2026-05-03 21:59 -12.91995 -66.09780 33903 ft 454 kts 330°
2026-05-03 22:00 -12.86527 -66.13038 33905 ft 454 kts 330°
2026-05-03 22:00 -12.81105 -66.16266 33905 ft 453 kts 330°
2026-05-03 22:01 -12.75630 -66.19525 33903 ft 454 kts 330°
2026-05-03 22:01 -12.70192 -66.22760 33903 ft 454 kts 330°
2026-05-03 22:02 -12.64701 -66.26026 33901 ft 454 kts 330°
2026-05-03 22:02 -12.59257 -66.29261 33905 ft 456 kts 330°
2026-05-03 22:03 -12.53766 -66.32523 33903 ft 456 kts 330°
2026-05-03 22:03 -12.48279 -66.35781 33904 ft 456 kts 330°
2026-05-03 22:04 -12.42823 -66.39018 33903 ft 456 kts 330°
2026-05-03 22:04 -12.37334 -66.42274 33903 ft 456 kts 330°
2026-05-03 22:05 -12.31850 -66.45525 33903 ft 455 kts 330°
2026-05-03 22:05 -12.26355 -66.48781 33903 ft 455 kts 330°
2026-05-03 22:06 -12.20904 -66.52010 33903 ft 455 kts 330°
2026-05-03 22:06 -12.15417 -66.55258 33904 ft 455 kts 330°
2026-05-03 22:07 -12.09912 -66.58516 33903 ft 456 kts 330°
2026-05-03 22:07 -12.04422 -66.61762 33905 ft 457 kts 330°
2026-05-03 22:08 -11.98909 -66.65022 33906 ft 457 kts 330°
2026-05-03 22:08 -11.93423 -66.68263 33905 ft 456 kts 330°
2026-05-03 22:09 -11.87927 -66.71509 33902 ft 457 kts 330°
2026-05-03 22:10 -11.79698 -66.76366 33902 ft 457 kts 330°
2026-05-03 22:10 -11.74192 -66.79613 33906 ft 456 kts 330°
2026-05-03 22:11 -11.68721 -66.82839 33909 ft 456 kts 330°
2026-05-03 22:11 -11.63188 -66.86100 33908 ft 457 kts 330°
2026-05-03 22:12 -11.57702 -66.89331 33907 ft 456 kts 330°
2026-05-03 22:12 -11.52228 -66.92555 33908 ft 458 kts 330°
2026-05-03 22:13 -11.46667 -66.95828 33908 ft 459 kts 330°
2026-05-03 22:13 -11.41186 -66.99052 33912 ft 457 kts 330°
2026-05-03 22:14 -11.35669 -67.02295 33911 ft 456 kts 330°
2026-05-03 22:14 -11.30188 -67.05517 33913 ft 457 kts 330°
2026-05-03 22:15 -11.24654 -67.08769 33909 ft 458 kts 330°
2026-05-03 22:15 -11.19147 -67.12002 33903 ft 457 kts 330°
2026-05-03 22:16 -11.13665 -67.15219 33908 ft 456 kts 330°
2026-05-03 22:16 -11.08135 -67.18464 33915 ft 459 kts 330°
2026-05-03 22:17 -11.02594 -67.21713 33912 ft 460 kts 330°
2026-05-03 22:17 -10.97055 -67.24960 33915 ft 461 kts 330°
2026-05-03 22:18 -10.91538 -67.28193 33906 ft 461 kts 330°
2026-05-03 22:18 -10.85972 -67.31453 33911 ft 461 kts 330°
2026-05-03 22:19 -10.80407 -67.34711 33913 ft 461 kts 330°
2026-05-03 22:19 -10.74844 -67.37966 33912 ft 460 kts 330°
2026-05-03 22:20 -10.69282 -67.41219 33913 ft 461 kts 330°
2026-05-03 22:20 -10.63748 -67.44454 33917 ft 462 kts 330°
2026-05-03 22:21 -10.58183 -67.47706 33914 ft 461 kts 330°
2026-05-03 22:21 -10.52621 -67.50955 33913 ft 461 kts 330°
2026-05-03 22:22 -10.48018 -67.53698 33913 ft 461 kts 329°
2026-05-03 22:22 -10.42524 -67.57065 33920 ft 460 kts 329°
2026-05-03 22:23 -10.37036 -67.60416 33920 ft 459 kts 329°
2026-05-03 22:23 -10.31588 -67.63742 33914 ft 459 kts 329°
2026-05-03 22:24 -10.26102 -67.67087 33915 ft 460 kts 329°
2026-05-03 22:24 -10.20608 -67.70438 33916 ft 460 kts 329°
2026-05-03 22:25 -10.15131 -67.73776 33915 ft 458 kts 329°
2026-05-03 22:25 -10.09677 -67.77098 33918 ft 460 kts 330°
2026-05-03 22:26 -10.04172 -67.80451 33918 ft 461 kts 329°
2026-05-03 22:26 -9.98698 -67.83784 33912 ft 460 kts 330°
2026-05-03 22:27 -9.93190 -67.87136 33907 ft 459 kts 329°
2026-05-03 22:27 -9.87688 -67.90351 33895 ft 459 kts 339°
2026-05-03 22:28 -9.81576 -67.92206 33890 ft 459 kts 344°
2026-05-03 22:28 -9.75446 -67.93975 33922 ft 459 kts 345°
2026-05-03 22:29 -9.69281 -67.95722 33918 ft 459 kts 345°
2026-05-03 22:29 -9.63128 -67.97463 33916 ft 459 kts 345°
2026-05-03 22:30 -9.57001 -67.99195 33917 ft 459 kts 345°
2026-05-03 22:30 -9.50847 -68.00934 33913 ft 459 kts 345°
2026-05-03 22:31 -9.44687 -68.02674 33920 ft 459 kts 345°
2026-05-03 22:31 -9.38544 -68.04409 33912 ft 458 kts 345°
2026-05-03 22:32 -9.32389 -68.06146 33917 ft 459 kts 345°
2026-05-03 22:32 -9.26236 -68.07883 33907 ft 458 kts 345°
2026-05-03 22:33 -9.20142 -68.09675 33917 ft 459 kts 344°
2026-05-03 22:33 -9.14030 -68.11508 33912 ft 458 kts 344°
2026-05-03 22:34 -9.07913 -68.13338 33914 ft 459 kts 344°
2026-05-03 22:34 -9.01786 -68.15171 33909 ft 458 kts 345°
2026-05-03 22:35 -8.95658 -68.17003 33915 ft 459 kts 344°
2026-05-03 22:35 -8.89553 -68.18828 33913 ft 458 kts 345°
2026-05-03 22:36 -8.83420 -68.20660 33913 ft 460 kts 345°
2026-05-03 22:36 -8.77317 -68.22483 33917 ft 459 kts 345°
2026-05-03 22:37 -8.71181 -68.24315 33915 ft 457 kts 345°
2026-05-03 22:37 -8.65088 -68.26134 33916 ft 458 kts 345°
2026-05-03 22:38 -8.58978 -68.27956 33917 ft 458 kts 345°
2026-05-03 22:38 -8.52873 -68.29778 33916 ft 457 kts 345°
2026-05-03 22:39 -8.46758 -68.31601 33918 ft 458 kts 345°
2026-05-03 22:39 -8.40646 -68.33422 33917 ft 458 kts 345°
2026-05-03 22:40 -8.34543 -68.35241 33915 ft 459 kts 345°
2026-05-03 22:40 -8.28435 -68.37061 33915 ft 458 kts 345°
2026-05-03 22:41 -8.22298 -68.38888 33921 ft 459 kts 345°
2026-05-03 22:41 -8.16219 -68.40698 33918 ft 458 kts 345°
2026-05-03 22:42 -8.10081 -68.42524 33922 ft 459 kts 345°
2026-05-03 22:42 -8.03958 -68.44346 33916 ft 461 kts 345°
2026-05-03 22:43 -7.97791 -68.46179 33917 ft 461 kts 345°
2026-05-03 22:43 -7.91685 -68.47996 33916 ft 460 kts 345°
2026-05-03 22:44 -7.85497 -68.49835 33917 ft 461 kts 345°
2026-05-03 22:44 -7.79394 -68.51648 33916 ft 460 kts 345°
2026-05-03 22:45 -7.73228 -68.53479 33918 ft 461 kts 345°
2026-05-03 22:45 -7.67069 -68.55309 33917 ft 461 kts 345°
2026-05-03 22:46 -7.60909 -68.57134 33915 ft 461 kts 345°
2026-05-03 22:46 -7.54787 -68.58946 33915 ft 461 kts 345°
2026-05-03 22:47 -7.48637 -68.60765 33914 ft 461 kts 345°
2026-05-03 22:47 -7.42472 -68.62589 33915 ft 461 kts 345°
2026-05-03 22:48 -7.36314 -68.64409 33916 ft 461 kts 345°
2026-05-03 22:48 -7.30154 -68.66230 33917 ft 461 kts 345°
2026-05-03 22:49 -7.24034 -68.68038 33917 ft 461 kts 345°
2026-05-03 22:49 -7.17873 -68.69858 33916 ft 461 kts 345°
2026-05-03 22:50 -7.11713 -68.71677 33917 ft 461 kts 345°
2026-05-03 22:50 -7.05575 -68.73489 33916 ft 461 kts 345°
2026-05-03 22:51 -6.99389 -68.75315 33921 ft 463 kts 345°
2026-05-03 22:51 -6.93218 -68.77136 33922 ft 463 kts 345°
2026-05-03 22:52 -6.87008 -68.78968 33922 ft 463 kts 345°
2026-05-03 22:52 -6.80836 -68.80789 33922 ft 463 kts 345°
2026-05-03 22:53 -6.74635 -68.82617 33921 ft 463 kts 345°
2026-05-03 22:53 -6.68452 -68.84439 33923 ft 465 kts 345°
2026-05-03 22:54 -6.62217 -68.86273 33916 ft 465 kts 345°
2026-05-03 22:54 -6.56030 -68.88094 33919 ft 465 kts 345°
2026-05-03 22:55 -6.49849 -68.89926 33919 ft 464 kts 345°
2026-05-03 22:55 -6.43650 -68.91762 33919 ft 464 kts 345°
2026-05-03 22:56 -6.37432 -68.93603 33920 ft 464 kts 345°
2026-05-03 22:56 -6.31265 -68.95428 33919 ft 464 kts 345°
2026-05-03 22:57 -6.25039 -68.97271 33917 ft 464 kts 345°
2026-05-03 22:57 -6.18854 -68.99101 33916 ft 464 kts 345°
2026-05-03 22:58 -6.12683 -69.00926 33920 ft 464 kts 345°
2026-05-03 22:58 -6.06476 -69.02761 33919 ft 464 kts 345°
2026-05-03 22:59 -6.00299 -69.04588 33919 ft 464 kts 345°
2026-05-03 22:59 -5.94077 -69.06427 33920 ft 465 kts 345°
2026-05-03 23:00 -5.87886 -69.08256 33919 ft 465 kts 345°
2026-05-03 23:00 -5.81675 -69.10091 33919 ft 465 kts 345°
2026-05-03 23:01 -5.75497 -69.11916 33919 ft 465 kts 345°
2026-05-03 23:01 -5.69284 -69.13751 33917 ft 465 kts 345°
2026-05-03 23:02 -5.63124 -69.15569 33915 ft 463 kts 345°
2026-05-03 23:02 -5.56932 -69.17397 33917 ft 464 kts 345°
2026-05-03 23:03 -5.50743 -69.19224 33911 ft 463 kts 345°
2026-05-03 23:03 -5.44548 -69.21051 33912 ft 465 kts 345°
2026-05-03 23:04 -5.38340 -69.22882 33915 ft 465 kts 345°
2026-05-03 23:04 -5.32137 -69.24712 33912 ft 465 kts 345°
2026-05-03 23:05 -5.25923 -69.26544 33915 ft 466 kts 345°
2026-05-03 23:05 -5.19707 -69.28376 33914 ft 466 kts 345°
2026-05-03 23:06 -5.13495 -69.30207 33914 ft 466 kts 345°
2026-05-03 23:06 -5.07303 -69.32032 33914 ft 465 kts 345°
2026-05-03 23:07 -5.01070 -69.33868 33918 ft 466 kts 345°
2026-05-03 23:07 -4.94864 -69.35697 33913 ft 466 kts 345°
2026-05-03 23:08 -4.88651 -69.37526 33914 ft 466 kts 345°
2026-05-03 23:08 -4.82450 -69.39352 33914 ft 465 kts 345°
2026-05-03 23:09 -4.76239 -69.41180 33914 ft 465 kts 345°
2026-05-03 23:09 -4.71062 -69.42704 33914 ft 465 kts 345°
2026-05-03 23:10 -4.63839 -69.44867 33911 ft 465 kts 344°
2026-05-03 23:10 -4.58640 -69.46425 33913 ft 465 kts 344°
2026-05-03 23:11 -4.52479 -69.48272 33909 ft 464 kts 344°
2026-05-03 23:11 -4.46299 -69.50124 33908 ft 464 kts 344°
2026-05-03 23:12 -4.40117 -69.51976 33908 ft 464 kts 344°
2026-05-03 23:12 -4.33908 -69.53835 33906 ft 465 kts 344°
2026-05-03 23:13 -4.27718 -69.55689 33912 ft 465 kts 345°
2026-05-03 23:13 -4.21545 -69.57537 33907 ft 462 kts 345°
2026-05-03 23:14 -4.15390 -69.59380 33912 ft 462 kts 345°
2026-05-03 23:14 -4.09232 -69.61227 33911 ft 462 kts 345°
2026-05-03 23:15 -4.03047 -69.63081 33908 ft 462 kts 345°
2026-05-03 23:15 -3.96935 -69.64913 33911 ft 462 kts 345°
2026-05-03 23:16 -3.90755 -69.66765 33914 ft 462 kts 345°
2026-05-03 23:16 -3.84618 -69.68604 33914 ft 462 kts 345°
2026-05-03 23:17 -3.78463 -69.70448 33914 ft 462 kts 345°
2026-05-03 23:17 -3.72288 -69.72297 33914 ft 462 kts 345°
2026-05-03 23:18 -3.66110 -69.74147 33914 ft 462 kts 345°
2026-05-03 23:18 -3.59970 -69.75986 33914 ft 462 kts 345°
2026-05-03 23:19 -3.53797 -69.77834 33915 ft 463 kts 345°
2026-05-03 23:19 -3.47636 -69.79670 33920 ft 463 kts 345°
2026-05-03 23:20 -3.41478 -69.81479 33923 ft 463 kts 345°
2026-05-03 23:20 -3.35316 -69.83291 33919 ft 462 kts 345°
2026-05-03 23:21 -3.29141 -69.85108 33922 ft 463 kts 345°
2026-05-03 23:21 -3.22960 -69.86925 33924 ft 462 kts 345°
2026-05-03 23:22 -3.13723 -69.89641 33921 ft 459 kts 345°
2026-05-03 23:22 -3.07603 -69.91440 33922 ft 460 kts 345°
2026-05-03 23:23 -3.01473 -69.93242 33924 ft 459 kts 345°
2026-05-03 23:23 -2.95357 -69.95040 33922 ft 459 kts 345°
2026-05-03 23:24 -2.89194 -69.96851 33924 ft 460 kts 345°
2026-05-03 23:24 -2.83085 -69.98646 33925 ft 461 kts 345°
2026-05-03 23:25 -2.76890 -70.00466 33925 ft 462 kts 345°
2026-05-03 23:25 -2.70767 -70.02299 33928 ft 462 kts 343°
2026-05-03 23:26 -2.64651 -70.04266 33930 ft 462 kts 344°
2026-05-03 23:26 -2.58535 -70.06219 33931 ft 462 kts 344°
2026-05-03 23:27 -2.52389 -70.08179 33934 ft 462 kts 344°
2026-05-03 23:27 -2.46280 -70.10128 33933 ft 462 kts 343°
2026-05-03 23:28 -2.40167 -70.12078 33933 ft 462 kts 343°
2026-05-03 23:28 -2.34137 -70.14001 33933 ft 462 kts 343°
2026-05-03 23:29 -2.28025 -70.16008 33931 ft 462 kts 340°
2026-05-03 23:29 -2.22054 -70.18329 34119 ft 463 kts 340°
2026-05-03 23:30 -2.19031 -70.19482 34329 ft 464 kts 341°
2026-05-03 23:30 -2.16009 -70.20629 34539 ft 464 kts 341°
2026-05-03 23:30 -2.12984 -70.21776 34728 ft 465 kts 341°
2026-05-03 23:30 -2.09951 -70.22927 34888 ft 467 kts 341°
2026-05-03 23:31 -2.06911 -70.24080 35097 ft 467 kts 341°
2026-05-03 23:31 -2.03875 -70.25232 35314 ft 467 kts 341°
2026-05-03 23:31 -2.00838 -70.26383 35537 ft 466 kts 341°
2026-05-03 23:31 -1.97840 -70.27520 35753 ft 466 kts 341°
2026-05-03 23:32 -1.94804 -70.28671 35934 ft 466 kts 341°
2026-05-03 23:32 -1.91765 -70.29823 35953 ft 466 kts 341°
2026-05-03 23:32 -1.85720 -70.32115 35940 ft 464 kts 341°
2026-05-03 23:33 -1.79678 -70.34406 35938 ft 464 kts 341°
2026-05-03 23:33 -1.73638 -70.36695 35937 ft 462 kts 341°
2026-05-03 23:34 -1.67655 -70.38964 35939 ft 462 kts 341°
2026-05-03 23:34 -1.61641 -70.41243 35938 ft 462 kts 341°
2026-05-03 23:35 -1.55616 -70.43527 35934 ft 462 kts 341°
2026-05-03 23:35 -1.49598 -70.45807 35933 ft 462 kts 341°
2026-05-03 23:36 -1.43579 -70.48088 35936 ft 462 kts 341°
2026-05-03 23:36 -1.37590 -70.50357 35936 ft 462 kts 341°
2026-05-03 23:37 -1.31580 -70.52635 35936 ft 462 kts 341°
2026-05-03 23:37 -1.25561 -70.54915 35932 ft 462 kts 341°
2026-05-03 23:38 -1.19532 -70.57200 35937 ft 463 kts 341°
2026-05-03 23:38 -1.13538 -70.59471 35936 ft 463 kts 341°
2026-05-03 23:39 -1.07511 -70.61754 35939 ft 463 kts 341°
2026-05-03 23:39 -1.01471 -70.64042 35939 ft 464 kts 341°
2026-05-03 23:40 -0.95425 -70.66333 35939 ft 464 kts 341°
2026-05-03 23:40 -0.89392 -70.68618 35939 ft 464 kts 341°
2026-05-03 23:41 -0.83401 -70.70887 35938 ft 464 kts 341°
2026-05-03 23:41 -0.77367 -70.73173 35937 ft 464 kts 341°
2026-05-03 23:42 -0.71332 -70.75458 35939 ft 464 kts 341°
2026-05-03 23:42 -0.65307 -70.77740 35937 ft 463 kts 341°
2026-05-03 23:43 -0.59277 -70.80024 35939 ft 463 kts 341°
2026-05-03 23:43 -0.53247 -70.82308 35938 ft 463 kts 341°
2026-05-03 23:44 -0.47222 -70.84590 35939 ft 463 kts 341°
2026-05-03 23:44 -0.41230 -70.86859 35937 ft 463 kts 341°
2026-05-03 23:45 -0.35200 -70.89143 35937 ft 464 kts 341°
2026-05-03 23:45 -0.29149 -70.91434 35943 ft 465 kts 341°
2026-05-03 23:46 -0.23092 -70.93729 35944 ft 465 kts 341°
2026-05-03 23:46 -0.17028 -70.96025 35945 ft 465 kts 341°
2026-05-03 23:47 -0.11017 -70.98301 35941 ft 465 kts 341°
2026-05-03 23:47 -0.04963 -71.00594 35941 ft 465 kts 341°
2026-05-03 23:48 0.01130 -71.02900 35941 ft 465 kts 341°
2026-05-03 23:48 0.07163 -71.05186 35946 ft 467 kts 341°
2026-05-03 23:49 0.13238 -71.07486 35944 ft 467 kts 341°
2026-05-03 23:49 0.19308 -71.09785 35944 ft 467 kts 341°
2026-05-03 23:50 0.24362 -71.11699 35947 ft 467 kts 341°
2026-05-03 23:50 0.31460 -71.14387 35949 ft 467 kts 341°
2026-05-03 23:51 0.37534 -71.16687 35945 ft 467 kts 341°
2026-05-03 23:51 0.43606 -71.18987 35948 ft 467 kts 341°
2026-05-03 23:52 0.49684 -71.21289 35949 ft 467 kts 341°
2026-05-03 23:52 0.55725 -71.23577 35949 ft 467 kts 341°
2026-05-03 23:53 0.61802 -71.25878 35950 ft 467 kts 341°
2026-05-03 23:53 0.67891 -71.28185 35950 ft 467 kts 341°
2026-05-03 23:54 0.73930 -71.30472 35951 ft 467 kts 341°
2026-05-03 23:54 0.80009 -71.32774 35950 ft 467 kts 341°
2026-05-03 23:55 0.86107 -71.35084 35952 ft 470 kts 341°
2026-05-03 23:55 0.92259 -71.37320 35953 ft 470 kts 342°
2026-05-03 23:56 0.98428 -71.39508 35949 ft 470 kts 342°
2026-05-03 23:56 1.04601 -71.41704 35950 ft 470 kts 342°
2026-05-03 23:57 1.10730 -71.43886 35950 ft 470 kts 342°
2026-05-03 23:57 1.16920 -71.46088 35953 ft 471 kts 342°
2026-05-03 23:58 1.22054 -71.47915 35949 ft 471 kts 342°
2026-05-03 23:58 1.28238 -71.50116 35949 ft 471 kts 342°
2026-05-03 23:59 1.34436 -71.52322 35955 ft 471 kts 342°
2026-05-03 23:59 1.40580 -71.54509 35955 ft 471 kts 342°
2026-05-04 00:00 1.46759 -71.56709 35952 ft 471 kts 342°
2026-05-04 00:00 1.52956 -71.58914 35958 ft 472 kts 342°
2026-05-04 00:01 1.59145 -71.61118 35956 ft 472 kts 342°
2026-05-04 00:01 1.65351 -71.63327 35958 ft 472 kts 342°
2026-05-04 00:02 1.71500 -71.65517 35958 ft 472 kts 342°
2026-05-04 00:02 1.77690 -71.67721 35958 ft 472 kts 342°
2026-05-04 00:03 1.83888 -71.69929 35959 ft 471 kts 341°
2026-05-04 00:03 1.90045 -71.72121 35959 ft 471 kts 341°
2026-05-04 00:04 1.96197 -71.74312 35961 ft 471 kts 341°
2026-05-04 00:04 2.02372 -71.76511 35960 ft 471 kts 341°
2026-05-04 00:05 2.08547 -71.78711 35957 ft 471 kts 341°
2026-05-04 00:05 2.14719 -71.80909 35958 ft 471 kts 341°
2026-05-04 00:06 2.20887 -71.83107 35955 ft 470 kts 341°
2026-05-04 00:06 2.27011 -71.85289 35957 ft 470 kts 341°
2026-05-04 00:07 2.33174 -71.87485 35956 ft 470 kts 341°
2026-05-04 00:07 2.39336 -71.89681 35955 ft 470 kts 341°
2026-05-04 00:08 2.45500 -71.91878 35957 ft 470 kts 342°
2026-05-04 00:08 2.51658 -71.94073 35956 ft 469 kts 342°
2026-05-04 00:09 2.57804 -71.96264 35954 ft 470 kts 342°
2026-05-04 00:09 2.63973 -71.98465 35956 ft 471 kts 342°
2026-05-04 00:10 2.70114 -72.00654 35959 ft 471 kts 342°
2026-05-04 00:10 2.76287 -72.02856 35958 ft 471 kts 342°
2026-05-04 00:11 2.82488 -72.05068 35957 ft 471 kts 342°
2026-05-04 00:11 2.88623 -72.07256 35958 ft 471 kts 342°
2026-05-04 00:12 2.94781 -72.09453 35954 ft 471 kts 342°
2026-05-04 00:12 3.00970 -72.11661 35956 ft 472 kts 342°
2026-05-04 00:13 3.07151 -72.13867 35966 ft 471 kts 342°
2026-05-04 00:13 3.13327 -72.16071 35966 ft 471 kts 342°
2026-05-04 00:14 3.19491 -72.18271 35970 ft 471 kts 342°
2026-05-04 00:14 3.25678 -72.20480 35966 ft 471 kts 342°
2026-05-04 00:15 3.31844 -72.22681 35964 ft 471 kts 342°
2026-05-04 00:15 3.38039 -72.24893 35963 ft 471 kts 342°
2026-05-04 00:16 3.44236 -72.27106 35973 ft 471 kts 342°
2026-05-04 00:16 3.50396 -72.29306 35970 ft 471 kts 342°
2026-05-04 00:17 3.56575 -72.31514 35972 ft 471 kts 342°
2026-05-04 00:17 3.62729 -72.33712 35970 ft 471 kts 342°
2026-05-04 00:18 3.68876 -72.35909 35972 ft 471 kts 342°
2026-05-04 00:18 3.75070 -72.38122 35967 ft 471 kts 342°
2026-05-04 00:19 3.81239 -72.40327 35981 ft 471 kts 342°
2026-05-04 00:19 3.87417 -72.42536 35973 ft 471 kts 342°
2026-05-04 00:20 3.93548 -72.44728 35971 ft 471 kts 342°
2026-05-04 00:20 3.99723 -72.46936 35974 ft 471 kts 342°
2026-05-04 00:21 4.05906 -72.49148 35970 ft 472 kts 341°
2026-05-04 00:21 4.12105 -72.51365 35970 ft 473 kts 341°
2026-05-04 00:22 4.18302 -72.53582 35974 ft 473 kts 341°
2026-05-04 00:22 4.24503 -72.55801 35967 ft 473 kts 341°
2026-05-04 00:23 4.30698 -72.58018 35967 ft 473 kts 341°
2026-05-04 00:23 4.36854 -72.60222 35961 ft 473 kts 341°
2026-05-04 00:24 4.43045 -72.62438 35961 ft 471 kts 341°
2026-05-04 00:24 4.49247 -72.64659 35963 ft 471 kts 341°
2026-05-04 00:25 4.55419 -72.66870 35957 ft 471 kts 341°
2026-05-04 00:25 4.61550 -72.69066 35971 ft 471 kts 341°
2026-05-04 00:26 4.67723 -72.71277 35973 ft 471 kts 341°
2026-05-04 00:26 4.73902 -72.73491 35974 ft 471 kts 341°
2026-05-04 00:27 4.80084 -72.75707 35976 ft 471 kts 341°
2026-05-04 00:27 4.86254 -72.77919 35989 ft 472 kts 341°
2026-05-04 00:28 4.92434 -72.80135 35991 ft 472 kts 341°
2026-05-04 00:28 4.98612 -72.82351 36078 ft 471 kts 341°
2026-05-04 00:29 5.04764 -72.84557 36077 ft 471 kts 341°
2026-05-04 00:29 5.10934 -72.86771 36141 ft 472 kts 341°
2026-05-04 00:30 5.17128 -72.88994 36142 ft 474 kts 341°
2026-05-04 00:30 5.23344 -72.91225 36139 ft 474 kts 341°
2026-05-04 00:31 5.29569 -72.93459 36180 ft 473 kts 341°
2026-05-04 00:31 5.35748 -72.95678 36210 ft 473 kts 341°
2026-05-04 00:32 5.41925 -72.97897 36215 ft 471 kts 341°
2026-05-04 00:32 5.48124 -73.00123 36215 ft 472 kts 341°
2026-05-04 00:33 5.57402 -73.03457 36214 ft 472 kts 341°
2026-05-04 00:34 5.63578 -73.05677 36207 ft 472 kts 341°
2026-05-04 00:34 5.69752 -73.07897 36192 ft 472 kts 341°
2026-05-04 00:35 5.75942 -73.10122 36186 ft 472 kts 341°
2026-05-04 00:35 5.82109 -73.12340 36178 ft 472 kts 341°
2026-05-04 00:36 5.88332 -73.14579 36147 ft 473 kts 341°
2026-05-04 00:36 5.94520 -73.16805 36147 ft 473 kts 341°
2026-05-04 00:37 6.00690 -73.19027 36116 ft 472 kts 341°
2026-05-04 00:37 6.06899 -73.21262 36122 ft 473 kts 341°
2026-05-04 00:38 6.13079 -73.23487 36066 ft 472 kts 341°
2026-05-04 00:38 6.19279 -73.25721 36072 ft 472 kts 341°
2026-05-04 00:39 6.25462 -73.27948 36072 ft 470 kts 341°
2026-05-04 00:39 6.31580 -73.30153 36043 ft 470 kts 341°
2026-05-04 00:40 6.37745 -73.32375 36047 ft 471 kts 341°
2026-05-04 00:40 6.43902 -73.34595 36014 ft 471 kts 341°
2026-05-04 00:41 6.50093 -73.36828 36008 ft 471 kts 341°
2026-05-04 00:41 6.56246 -73.39048 35964 ft 471 kts 341°
2026-05-04 00:42 6.62387 -73.41264 35967 ft 470 kts 341°
2026-05-04 00:42 6.68549 -73.43488 35973 ft 470 kts 341°
2026-05-04 00:43 6.74717 -73.45715 35928 ft 470 kts 341°
2026-05-04 00:43 6.80858 -73.47932 35932 ft 470 kts 341°
2026-05-04 00:44 6.87014 -73.50155 35903 ft 470 kts 341°
2026-05-04 00:44 6.93168 -73.52379 35872 ft 470 kts 341°
2026-05-04 00:45 6.99327 -73.54605 35873 ft 470 kts 341°
2026-05-04 00:45 7.05491 -73.56833 35858 ft 470 kts 341°
2026-05-04 00:46 7.10632 -73.58693 35855 ft 470 kts 341°
2026-05-04 00:46 7.16787 -73.60919 35857 ft 470 kts 341°
2026-05-04 00:47 7.22948 -73.63149 35857 ft 470 kts 341°
2026-05-04 00:47 7.29082 -73.65369 35849 ft 470 kts 341°
2026-05-04 00:48 7.35268 -73.67608 35819 ft 470 kts 341°
2026-05-04 00:48 7.41391 -73.69826 35820 ft 470 kts 341°
2026-05-04 00:49 7.47536 -73.72052 35824 ft 470 kts 341°
2026-05-04 00:49 7.53689 -73.74281 35822 ft 470 kts 341°
2026-05-04 00:50 7.59846 -73.76512 35828 ft 470 kts 341°
2026-05-04 00:50 7.66014 -73.78749 35835 ft 470 kts 341°
2026-05-04 00:51 7.72162 -73.80978 35843 ft 469 kts 340°
2026-05-04 00:51 7.78258 -73.83190 35847 ft 469 kts 341°
2026-05-04 00:52 7.84436 -73.85433 35848 ft 469 kts 340°
2026-05-04 00:52 7.90551 -73.87652 35850 ft 469 kts 340°
2026-05-04 00:53 7.96717 -73.89892 35852 ft 469 kts 340°
2026-05-04 00:53 8.02862 -73.92124 35862 ft 469 kts 340°
2026-05-04 00:54 8.09006 -73.94357 35882 ft 470 kts 340°
2026-05-04 00:54 8.15166 -73.96596 35878 ft 470 kts 340°
2026-05-04 00:55 8.21301 -73.98826 35882 ft 470 kts 340°
2026-05-04 00:55 8.27455 -74.01064 35881 ft 471 kts 340°
2026-05-04 00:56 8.33610 -74.03304 35881 ft 470 kts 340°
2026-05-04 00:56 8.39797 -74.05556 35884 ft 471 kts 340°
2026-05-04 00:57 8.45932 -74.07790 35892 ft 472 kts 340°
2026-05-04 00:57 8.52138 -74.10050 35871 ft 472 kts 340°
2026-05-04 00:58 8.58318 -74.12302 35874 ft 472 kts 340°
2026-05-04 00:58 8.64497 -74.14554 35865 ft 472 kts 340°
2026-05-04 00:59 8.70686 -74.16811 35862 ft 472 kts 340°
2026-05-04 00:59 8.76837 -74.19054 35862 ft 472 kts 341°
2026-05-04 01:00 8.83012 -74.21307 35866 ft 472 kts 340°
2026-05-04 01:00 8.89209 -74.23568 35867 ft 472 kts 341°
2026-05-04 01:01 8.95366 -74.25816 35867 ft 472 kts 340°
2026-05-04 01:01 9.01570 -74.28083 35866 ft 472 kts 340°
2026-05-04 01:01 9.04624 -74.29198 35707 ft 468 kts 341°
2026-05-04 01:02 9.07696 -74.30321 34833 ft 472 kts 340°
2026-05-04 01:02 9.10806 -74.31458 33767 ft 483 kts 340°
2026-05-04 01:02 9.14013 -74.32631 32837 ft 486 kts 340°
2026-05-04 01:02 9.17158 -74.33780 32164 ft 483 kts 340°
2026-05-04 01:03 9.20329 -74.34940 31432 ft 482 kts 340°
2026-05-04 01:03 9.23501 -74.36100 30571 ft 484 kts 340°
2026-05-04 01:03 9.26692 -74.37267 29736 ft 486 kts 340°
2026-05-04 01:03 9.29854 -74.38424 28991 ft 483 kts 340°
2026-05-04 01:04 9.32960 -74.39561 28410 ft 477 kts 340°
2026-05-04 01:04 9.36068 -74.40699 27819 ft 472 kts 340°
2026-05-04 01:04 9.39168 -74.41833 27190 ft 468 kts 340°
2026-05-04 01:04 9.42205 -74.42946 26573 ft 465 kts 340°
2026-05-04 01:05 9.45228 -74.44053 25962 ft 462 kts 340°
2026-05-04 01:05 9.48244 -74.45158 25352 ft 460 kts 340°
2026-05-04 01:05 9.51248 -74.46259 24742 ft 458 kts 340°
2026-05-04 01:05 9.54231 -74.47351 24130 ft 456 kts 340°
2026-05-04 01:06 9.57231 -74.48451 23527 ft 454 kts 339°
2026-05-04 01:06 9.60198 -74.49539 22821 ft 453 kts 340°
2026-05-04 01:06 9.63163 -74.50625 22095 ft 452 kts 340°
2026-05-04 01:06 9.66072 -74.51691 21554 ft 447 kts 340°
2026-05-04 01:07 9.68978 -74.52757 20981 ft 443 kts 340°
2026-05-04 01:07 9.71868 -74.53818 20389 ft 439 kts 340°
2026-05-04 01:07 9.74736 -74.54870 19821 ft 437 kts 341°
2026-05-04 01:07 9.77583 -74.55915 19253 ft 434 kts 341°
2026-05-04 01:08 9.80413 -74.56954 18691 ft 431 kts 341°
2026-05-04 01:08 9.83233 -74.57990 18128 ft 429 kts 341°
2026-05-04 01:08 9.86032 -74.59017 17509 ft 426 kts 341°
2026-05-04 01:08 9.88777 -74.60026 16963 ft 422 kts 341°
2026-05-04 01:09 9.91517 -74.61032 16432 ft 418 kts 341°
2026-05-04 01:09 9.94291 -74.61868 15821 ft 415 kts 347°
2026-05-04 01:09 9.97074 -74.62628 15369 ft 410 kts 346°
2026-05-04 01:09 9.99806 -74.63390 14929 ft 405 kts 346°
2026-05-04 01:10 10.02507 -74.64152 14465 ft 401 kts 346°
2026-05-04 01:10 10.05184 -74.64910 14011 ft 398 kts 346°
2026-05-04 01:10 10.07845 -74.65664 13494 ft 395 kts 346°
2026-05-04 01:10 10.10452 -74.66404 12985 ft 393 kts 346°
2026-05-04 01:11 10.13071 -74.67148 12496 ft 389 kts 346°
2026-05-04 01:11 10.15668 -74.67885 11987 ft 387 kts 346°
2026-05-04 01:11 10.18247 -74.68618 11513 ft 383 kts 346°
2026-05-04 01:11 10.20812 -74.69346 11053 ft 380 kts 346°
2026-05-04 01:12 10.23350 -74.70068 10602 ft 377 kts 345°
2026-05-04 01:12 10.25865 -74.70782 10150 ft 374 kts 345°
2026-05-04 01:12 10.28362 -74.71492 9682 ft 371 kts 345°
2026-05-04 01:12 10.30850 -74.72199 9179 ft 369 kts 345°
2026-05-04 01:13 10.33307 -74.72897 8743 ft 365 kts 345°
2026-05-04 01:13 10.35741 -74.73589 8306 ft 361 kts 345°
2026-05-04 01:13 10.38144 -74.74272 7868 ft 358 kts 345°
2026-05-04 01:13 10.40510 -74.74945 7429 ft 355 kts 345°
2026-05-04 01:14 10.42882 -74.75620 6992 ft 353 kts 344°
2026-05-04 01:14 10.45243 -74.76292 6552 ft 351 kts 344°
2026-05-04 01:14 10.47584 -74.76958 6189 ft 347 kts 344°
2026-05-04 01:14 10.49881 -74.77611 6006 ft 336 kts 344°
2026-05-04 01:15 10.52100 -74.78243 5841 ft 326 kts 344°
2026-05-04 01:15 10.54247 -74.78854 5680 ft 316 kts 344°
2026-05-04 01:15 10.56334 -74.79448 5528 ft 306 kts 344°
2026-05-04 01:15 10.58358 -74.80024 5381 ft 297 kts 344°
2026-05-04 01:16 10.60245 -74.80722 5207 ft 289 kts 328°
2026-05-04 01:16 10.61760 -74.82013 5071 ft 279 kts 317°
2026-05-04 01:16 10.63173 -74.83321 4950 ft 270 kts 317°
2026-05-04 01:16 10.64537 -74.84579 4857 ft 260 kts 317°
2026-05-04 01:17 10.65850 -74.85792 4708 ft 250 kts 317°
2026-05-04 01:17 10.67112 -74.86960 4565 ft 239 kts 317°
2026-05-04 01:17 10.68306 -74.88066 4410 ft 226 kts 317°
2026-05-04 01:17 10.69440 -74.89116 4259 ft 214 kts 317°
2026-05-04 01:18 10.70561 -74.90037 4106 ft 203 kts 328°
2026-05-04 01:18 10.71762 -74.90715 3955 ft 192 kts 334°
2026-05-04 01:18 10.73041 -74.90933 3697 ft 188 kts
2026-05-04 01:18 10.74208 -74.90391 3449 ft 183 kts 30°
2026-05-04 01:19 10.75282 -74.89705 3216 ft 183 kts 33°
2026-05-04 01:19 10.76290 -74.88943 2981 ft 183 kts 37°
2026-05-04 01:19 10.77285 -74.88120 2730 ft 181 kts 38°
2026-05-04 01:19 10.78233 -74.87309 2501 ft 180 kts 39°
2026-05-04 01:20 10.79185 -74.86491 2266 ft 178 kts 39°
2026-05-04 01:20 10.80109 -74.85697 2074 ft 171 kts 39°
2026-05-04 01:20 10.80978 -74.84949 1855 ft 158 kts 39°
2026-05-04 01:20 10.81805 -74.84238 1652 ft 154 kts 39°
2026-05-04 01:21 10.82615 -74.83541 1426 ft 152 kts 39°
2026-05-04 01:21 10.83418 -74.82850 1230 ft 151 kts 39°
2026-05-04 01:21 10.84221 -74.82159 1043 ft 151 kts 39°
2026-05-04 01:21 10.85023 -74.81470 868 ft 150 kts 39°
2026-05-04 01:22 10.85816 -74.80785 665 ft 148 kts 39°
2026-05-04 01:22 10.86581 -74.80125 500 ft 145 kts 40°
2026-05-04 01:22 10.87347 -74.79462 296 ft 142 kts 39°
2026-05-04 01:22 10.88103 -74.78818 119 ft 138 kts 40°
2026-05-04 01:23 10.88766 -74.78252 89 ft 107 kts 40°
2026-05-04 01:23 10.89217 -74.77865 84 ft 63 kts 40°
2026-05-04 01:23 10.89377 -74.77694 76 ft 23 kts 78°
2026-05-04 01:23 10.89362 -74.77554 75 ft 17 kts 141°
2026-05-04 01:24 10.89260 -74.77516 76 ft 16 kts 162°
2026-05-04 01:24 10.89148 -74.77492 69 ft 17 kts 187°
2026-05-04 01:24 10.89047 -74.77555 82 ft 18 kts 221°
2026-05-04 01:24 10.88970 -74.77622 84 ft 9 kts 220°
2026-05-04 01:25 10.88911 -74.77623 83 ft 10 kts 139°
2026-05-04 01:25 10.88857 -74.77567 83 ft 12 kts 130°
2026-05-04 01:25 10.88805 -74.77499 81 ft 10 kts 138°
2026-05-04 01:25 10.88757 -74.77510 84 ft 6 kts 216°
2026-05-04 01:26 10.88735 -74.77534 84 ft 4 kts 261°
2026-05-04 01:26 10.88747 -74.77561 86 ft 5 kts 307°
2026-05-04 01:26 10.88761 -74.77578 85 ft 0 kts 310°